Flag Weather past 2 weeks in Owensboro, Kentucky, U.S.A.

Now
42 °F

Passing clouds.


Feels Like: 38 °F
Forecast: 26 / 44 °F
Wind: 6 mph from North

Location: Owensboro / Daviess

Current Time: Nov 26, 2014 at 5:34:08 PM

Latest Report: Nov 26, 2014 at 4:56 PM


Visibility: 10 mi

Pressure: 30.02 "Hg

Humidity: 54%

Dew point: 26 °F

Location of OwensboroLocation

Historic Weather in Owensboro — Graph

°F

Owensboro temperature yesterday

Maximum temperature yesterday: 42 °F (at 11:56 AM)
Minimum temperature yesterday: 29 °F (at 6:56 AM)
Average temperature yesterday: 36 °F

Past Weeks' High & Low Weather Summary

 TemperatureHumidityPressure
High65 °F (Nov 22, 2:56 PM)100% (Nov 16, 11:56 PM)30.52 "Hg (Nov 16, 11:56 PM)
Low10 °F (Nov 18, 4:56 AM)35% (Nov 15, 12:56 PM)29.27 "Hg (Nov 23, 7:56 PM)
Average35 °F70%30.16 "Hg
* Reported Nov 11 3:56 PM — Nov 26 3:56 PM, Owensboro, Weather by CustomWeather, © 2014

Note: Actual official high and low records may vary slightly from our data, if they occured in-between our weather recording intervals... More about our weather records

Advertising

Owensboro weather history for previous 24 hours

 ConditionsComfort  
Time TempWeatherWind HumidityBarometerVisibility
3:56 PM
Nov 26
42 °FSunny.8 mph54%30.03 "Hg10 mi
2:56 PM43 °FSunny.8 mph51%30.02 "Hg10 mi
1:56 PM41 °FSunny.8 mph60%30.05 "Hg10 mi
12:56 PM39 °FSunny.N/A68%30.06 "Hg10 mi
11:56 AM37 °FSunny.5 mph70%30.11 "Hg10 mi
10:56 AM37 °FSunny.5 mph73%30.14 "Hg10 mi
9:56 AM35 °FSunny.No wind79%30.16 "Hg7 mi
8:56 AM31 °FSunny.7 mph88%30.16 "Hg6 mi
7:56 AM27 °FIce fog.No wind93%30.17 "Hg4 mi
6:56 AM22 °FIce fog.5 mph96%30.17 "Hg4 mi
5:56 AM23 °FClear.No wind92%30.16 "Hg8 mi
4:56 AM24 °FIce fog.N/A92%30.16 "Hg6 mi
3:56 AM26 °FClear.N/A92%30.16 "Hg8 mi
2:56 AM28 °FClear.N/A89%30.16 "Hg9 mi
1:56 AM29 °FClear.N/A89%30.17 "Hg10 mi
12:56 AM29 °FClear.N/A89%30.17 "Hg10 mi
11:56 PM
Nov 25
29 °FClear.N/A89%30.19 "Hg10 mi
10:56 PM30 °FClear.N/A89%30.20 "Hg10 mi
9:56 PM32 °FClear.6 mph82%30.22 "Hg10 mi
8:56 PM33 °FClear.5 mph82%30.22 "Hg10 mi
7:56 PM34 °FClear.5 mph79%30.22 "Hg10 mi
6:56 PM35 °FClear.9 mph76%30.21 "Hg10 mi
5:56 PM37 °FClear.6 mph73%30.19 "Hg10 mi
Weather by CustomWeather, © 2014

See weather overviewHow to use our weather pages